[[{"header":{"parameterUnit":"m.s-1","parameterCategory":2,"la1":30.2991,"la2":30.254,"lo1":-89.0895,"lo2":-89.0444,"dy":0.0017,"dx":0.0017,"nx":28,"ny":28,"refTime":"2026-02-14T09:00:00:Z","depth":"0","parameterNumber":2,"parameterNumberName":"U-component_of_CURRENTS"},"data":[0,0,0,0,0,0,0,0,0,0,0,0,0,0,0,0,0,0,0,0,0,0,0,0,0,0,0,0,0,0,0,0,0,0,0,0,0,0,0,0,0,0,0,0,0,0,0,0,0,0,0,0,0,0,0,0,0,0,-0.2582,-0.2583,0,-0.2681,-0.2682,-0.2683,-0.2678,-0.2677,-0.2676,-0.2675,-0.2698,-0.27,-0.2701,0,0,0,0,0,0,0,0,0,0,0,0,0,-0.2459,-0.2461,-0.2582,-0.2584,-0.2585,-0.2681,-0.2682,-0.2683,-0.2679,-0.2677,-0.2675,-0.2674,-0.2697,-0.2699,-0.2702,0,0,0,0,0,0,0,0,0,0,0,0,0,-0.2529,-0.2461,-0.2582,-0.2595,-0.2597,-0.2681,-0.2682,-0.2684,-0.2679,-0.2677,-0.2675,-0.2673,-0.2696,-0.2699,-0.2702,-0.2758,0,0,-0.271,-0.2712,0,0,0,0,0,0,0,0,-0.2525,-0.2534,-0.2592,-0.2594,-0.2597,-0.2666,-0.2647,-0.2705,-0.2679,-0.2647,-0.2675,-0.2672,-0.2682,-0.2686,-0.2709,-0.276,-0.276,-0.2711,-0.2712,-0.2713,-0.2714,0,0,0,0,0,0,0,-0.252,-0.253,-0.262,-0.2593,-0.2596,-0.262,-0.2627,-0.2659,-0.2672,-0.265,-0.265,-0.2663,-0.2683,-0.2706,-0.2709,-0.2761,-0.2711,-0.2713,-0.2715,-0.2716,-0.2808,-0.2808,0,0,0,0,0,0,-0.2509,-0.2525,-0.2617,-0.2623,-0.2557,-0.2623,-0.2631,-0.2645,-0.2674,-0.2677,-0.2665,-0.2662,-0.2703,-0.2706,-0.271,-0.2746,-0.2713,-0.2716,-0.2718,-0.2807,-0.2808,-0.2809,0,0,0,0,0,0,-0.2506,-0.2517,-0.2613,-0.2577,-0.2591,-0.2627,-0.2643,-0.2648,-0.2664,-0.2686,-0.2687,-0.2673,-0.2701,-0.2706,-0.2741,-0.2747,-0.2717,-0.272,-0.2806,-0.2807,-0.2808,-0.2838,0,0,0,0,0,0,-0.2502,-0.2515,-0.2519,-0.2576,-0.2593,-0.2658,-0.2645,-0.2652,-0.2676,-0.2674,-0.2695,-0.2695,-0.27,-0.2737,-0.2744,-0.275,-0.2722,-0.2805,-0.2807,-0.2808,-0.2836,-0.284,-0.2843,0,0,0,0,0,-0.2498,-0.2512,-0.2518,-0.2529,-0.2598,-0.2659,-0.267,-0.2688,-0.2678,-0.2692,-0.2709,-0.2694,-0.275,-0.2741,-0.2749,-0.2756,-0.2804,-0.2806,-0.2808,-0.2834,-0.2839,-0.2843,0,0,0,0,0,0,-0.2459,-0.2515,-0.2523,-0.2552,-0.2599,-0.2658,-0.2673,-0.2691,-0.272,-0.271,-0.2722,-0.2726,-0.2752,-0.2757,-0.2747,-0.2785,-0.2768,-0.2772,-0.2785,-0.279,-0.2794,-0.277,-0.2724,0,0,0,0,0,-0.2455,-0.2475,-0.2537,-0.2557,-0.258,-0.2627,-0.2653,-0.2671,-0.2707,-0.2717,-0.2737,-0.2751,-0.2771,-0.2782,-0.2801,-0.2838,-0.2799,-0.2841,-0.2845,-0.2848,-0.2833,-0.2784,-0.2781,-0.2814,-0.2814,-0.2814,0,0,-0.2445,-0.2478,-0.2488,-0.255,-0.2584,-0.2629,-0.2637,-0.2678,-0.2706,-0.2716,-0.2753,-0.2769,-0.2784,-0.2817,-0.2828,-0.2819,-0.2821,-0.285,-0.2853,-0.2836,-0.2785,-0.2781,-0.2778,-0.2816,-0.2815,-0.2815,0,0,-0.2444,-0.2466,-0.2488,-0.2531,-0.2587,-0.2623,-0.2634,-0.2699,-0.2713,-0.2766,-0.2768,-0.2787,-0.2835,-0.2841,-0.285,-0.2887,-0.2842,-0.2893,-0.2896,-0.2849,-0.2845,-0.2841,-0.2794,-0.2786,-0.2895,-0.2895,-0.2895,0,-0.2429,-0.2466,-0.2504,-0.2544,-0.2575,-0.2619,-0.2657,-0.2692,-0.2758,-0.2767,-0.2772,-0.2821,-0.284,-0.2859,-0.2876,-0.2893,-0.2856,-0.2879,-0.2851,-0.2846,-0.2841,-0.2795,-0.2785,-0.2897,-0.2897,-0.2896,-0.2896,0,-0.2454,-0.2485,-0.2503,-0.2562,-0.2603,-0.2641,-0.2699,-0.2729,-0.2752,-0.2783,-0.2808,-0.284,-0.2857,-0.2875,-0.2895,-0.288,-0.2862,-0.2859,-0.2834,-0.2839,-0.279,-0.278,-0.2899,-0.2898,-0.2898,-0.2898,0,0,-0.2414,-0.2502,-0.2506,-0.2532,-0.2613,-0.2647,-0.2693,-0.2742,-0.2751,-0.2802,-0.2806,-0.2858,-0.286,-0.2869,-0.2887,-0.2863,-0.2819,-0.2853,-0.285,-0.2797,-0.2706,-0.2686,-0.2672,-0.2807,-0.2805,-0.2803,-0.2687,0,-0.2418,-0.2479,-0.2527,-0.258,-0.2617,-0.2669,-0.2705,-0.275,-0.2779,-0.2796,-0.2813,-0.2829,-0.2862,-0.2866,-0.285,-0.2832,-0.279,-0.285,-0.2717,-0.2713,-0.2686,-0.2659,-0.2604,-0.2495,-0.2677,-0.2675,-0.2673,0,-0.2422,-0.2464,-0.2514,-0.2581,-0.2599,-0.2635,-0.2676,-0.2718,-0.2752,-0.2769,-0.2782,-0.2796,-0.2797,-0.2807,-0.2752,-0.2787,-0.2742,-0.2717,-0.2711,-0.2668,-0.2672,-0.2519,-0.2468,-0.2467,-0.2656,-0.2658,-0.2659,0,-0.2364,-0.2447,-0.2478,-0.2507,-0.2595,-0.261,-0.2649,-0.2697,-0.2719,-0.2738,-0.2741,-0.2746,-0.2737,-0.2694,-0.2682,-0.2701,-0.2595,-0.2609,-0.2536,-0.2534,-0.2447,-0.2441,-0.2367,-0.252,-0.2521,-0.2521,-0.2521,0,-0.2347,-0.237,-0.2449,-0.247,-0.2493,-0.2567,-0.2585,-0.2622,-0.2661,-0.2675,-0.2713,-0.2709,-0.2704,-0.2668,-0.2644,-0.2563,-0.2558,-0.2514,-0.2494,-0.2459,-0.2456,-0.242,-0.2438,-0.2517,-0.2518,-0.2519,-0.2519,0,-0.2278,-0.2338,-0.2372,-0.245,-0.2468,-0.2479,-0.2548,-0.2561,-0.2607,-0.2619,-0.2622,-0.2656,-0.2617,-0.2602,-0.2526,-0.2503,-0.2394,-0.2397,-0.2364,-0.2343,-0.2285,-0.2307,-0.2158,-0.2097,-0.2286,-0.2284,-0.2283,0,-0.2247,-0.2258,-0.233,-0.2343,-0.2375,-0.241,-0.2434,-0.2513,-0.2535,-0.2588,-0.2583,-0.2565,-0.2545,-0.2446,-0.2403,-0.2322,-0.2312,-0.2213,-0.224,-0.2255,-0.2263,-0.2261,-0.222,-0.2135,-0.2133,-0.2131,-0.213,0,-0.2173,-0.2196,-0.2224,-0.2252,-0.2278,-0.231,-0.2355,-0.2367,-0.2456,-0.2469,-0.2479,-0.2465,-0.2417,-0.2334,-0.2251,-0.2197,-0.2177,-0.2172,-0.2179,-0.2126,-0.212,-0.2062,-0.2252,-0.2114,-0.2115,-0.2117,-0.2117,-0.2118,-0.2096,-0.2092,-0.2124,-0.2136,-0.2168,-0.2181,-0.2164,-0.2231,-0.2243,-0.2252,-0.2333,-0.23,-0.2285,-0.2174,-0.2124,-0.2037,-0.2045,-0.1989,-0.2007,-0.1998,-0.1956,-0.212,-0.1975,-0.1976,-0.1977,-0.1977,-0.1978,0,-0.1986,-0.1994,-0.2006,-0.2018,-0.1999,-0.2057,-0.2082,-0.2046,-0.2021,-0.2096,-0.2099,-0.2126,-0.2049,-0.204,-0.198,-0.1907,-0.1849,-0.186,-0.1844,-0.1804,-0.193,-0.1945,-0.1797,-0.1797,-0.1797,-0.1797,-0.1797,-0.1797,-0.1931,-0.1897,-0.1903,-0.1831,-0.1837,-0.1763,-0.1744,-0.1722,-0.1744,-0.1743,-0.1803,-0.1894,-0.1906,-0.2034,-0.1946,-0.186,-0.1798,-0.1744,-0.1738,-0.1866,-0.188,-0.1894,-0.1912,-0.1759,-0.1759,-0.1561,-0.156,-0.1559]},{"header":{"parameterUnit":"m.s-1","parameterCategory":2,"la1":30.2991,"la2":30.254,"lo1":-89.0895,"lo2":-89.0444,"dy":0.0017,"dx":0.0017,"nx":28,"ny":28,"refTime":"2026-02-14T09:00:00:Z","depth":"0","parameterNumber":3,"parameterNumberName":"V-component_of_CURRENTS"},"data":[0,0,0,0,0,0,0,0,0,0,0,0,0,0,0,0,0,0,0,0,0,0,0,0,0,0,0,0,0,0,0,0,0,0,0,0,0,0,0,0,0,0,0,0,0,0,0,0,0,0,0,0,0,0,0,0,0,0,-0.0259,-0.0258,0,-0.0174,-0.0173,-0.0171,-0.011,-0.011,-0.0109,-0.0109,0.0032,0.0035,0.0039,0,0,0,0,0,0,0,0,0,0,0,0,0,-0.0297,-0.0297,-0.0259,-0.0258,-0.0257,-0.0174,-0.0172,-0.0171,-0.011,-0.011,-0.0109,-0.0109,0.0031,0.0035,0.0039,0,0,0,0,0,0,0,0,0,0,0,0,0,-0.0251,-0.0297,-0.0259,-0.0218,-0.0214,-0.0174,-0.0172,-0.0171,-0.011,-0.011,-0.0109,-0.0109,0.0029,0.0034,0.0039,0.0061,0,0,0.0055,0.0057,0,0,0,0,0,0,0,0,-0.0254,-0.025,-0.0225,-0.0221,-0.0216,-0.0154,-0.0134,-0.0091,-0.011,-0.0148,-0.0109,-0.0109,-0.0027,-0.0017,-0.0,0.0068,0.0074,0.0056,0.0059,0.0061,0.0062,0,0,0,0,0,0,0,-0.0257,-0.0253,-0.0223,-0.0224,-0.0219,-0.0179,-0.0173,-0.0125,-0.0088,-0.0144,-0.014,-0.0134,-0.0023,-0.0005,0.0004,0.0076,0.0056,0.006,0.0063,0.0065,0.0185,0.0185,0,0,0,0,0,0,-0.0276,-0.0256,-0.0226,-0.0221,-0.0236,-0.018,-0.0172,-0.0173,-0.009,-0.0078,-0.0134,-0.0131,-0.0014,-0.0002,0.0009,0.0054,0.0061,0.0066,0.0069,0.0185,0.0185,0.0185,0,0,0,0,0,0,-0.0277,-0.0275,-0.0229,-0.0237,-0.0229,-0.018,-0.0181,-0.0171,-0.0155,-0.0083,-0.007,-0.0128,-0.0013,0.0002,0.0053,0.0059,0.0068,0.0073,0.0185,0.0185,0.0185,0.0135,0,0,0,0,0,0,-0.0279,-0.0276,-0.0281,-0.0239,-0.023,-0.0218,-0.0181,-0.017,-0.0152,-0.0148,-0.0074,-0.006,-0.0012,0.0045,0.0058,0.0067,0.0077,0.0185,0.0185,0.0185,0.0137,0.0133,0.0131,0,0,0,0,0,-0.0281,-0.0298,-0.0282,-0.0278,-0.0239,-0.0219,-0.0211,-0.0172,-0.0153,-0.0154,-0.0095,-0.0062,0.0055,0.0049,0.0065,0.0075,0.0185,0.0185,0.0185,0.0138,0.0134,0.0131,0,0,0,0,0,0,-0.0318,-0.0292,-0.0273,-0.0282,-0.0256,-0.021,-0.0207,-0.018,-0.0135,-0.0128,-0.0057,-0.004,0.0005,0.0045,0.0036,0.0109,0.0124,0.0127,0.0083,0.008,0.0077,0.0057,0.0081,0,0,0,0,0,-0.0329,-0.0334,-0.03,-0.0305,-0.0298,-0.0253,-0.0239,-0.0215,-0.0172,-0.0152,-0.0096,-0.0037,0.0018,0.0051,0.0098,0.0141,0.0176,0.0156,0.0153,0.015,0.0145,0.0208,0.0211,0.0186,0.0186,0.0186,0,0,-0.0343,-0.0331,-0.0331,-0.0313,-0.0289,-0.0286,-0.0243,-0.0233,-0.0216,-0.0143,-0.0102,-0.0048,0.0024,0.0072,0.0096,0.0108,0.0173,0.0151,0.0148,0.0144,0.0209,0.0211,0.0214,0.0186,0.0186,0.0186,0,0,-0.0382,-0.0365,-0.0384,-0.037,-0.0347,-0.0316,-0.0318,-0.0275,-0.0242,-0.02,-0.014,-0.0081,-0.0006,0.0056,0.0096,0.0106,0.015,0.0115,0.0095,0.0157,0.0159,0.0162,0.0196,0.0202,0.012,0.012,0.012,0,-0.04,-0.0418,-0.0386,-0.0401,-0.0391,-0.0336,-0.0349,-0.0308,-0.0249,-0.0214,-0.0198,-0.0068,-0.0009,0.0069,0.0072,0.0101,0.0129,0.0103,0.0153,0.0156,0.016,0.0194,0.0202,0.0118,0.0118,0.0118,0.0119,0,-0.0452,-0.0464,-0.0475,-0.047,-0.0454,-0.0459,-0.0404,-0.0373,-0.0324,-0.0271,-0.0192,-0.0106,-0.0027,0.0002,0.0042,0.01,0.0108,0.0136,0.0159,0.0159,0.0195,0.0204,0.0115,0.0115,0.0116,0.0117,0,0,-0.0495,-0.0511,-0.0513,-0.0522,-0.0492,-0.0485,-0.0452,-0.0398,-0.0363,-0.029,-0.0235,-0.0134,-0.0083,-0.0035,0.003,0.0087,0.0136,0.0113,0.0117,0.014,0.0249,0.0287,0.03,0.0171,0.0172,0.0174,0.0258,0,-0.0543,-0.0595,-0.0577,-0.0601,-0.0619,-0.0556,-0.0527,-0.0466,-0.0392,-0.0324,-0.0215,-0.0146,-0.0095,-0.0058,0.0009,0.0113,0.0158,0.0108,0.025,0.0254,0.0284,0.0312,0.0355,0.0438,0.0267,0.0269,0.027,0,-0.0597,-0.0623,-0.0671,-0.0665,-0.0663,-0.0661,-0.0593,-0.0559,-0.0443,-0.0384,-0.0289,-0.0206,-0.0096,-0.0067,0.0105,0.0069,0.0141,0.0214,0.022,0.0279,0.0309,0.0414,0.0461,0.0604,0.0284,0.0283,0.0282,0,-0.0648,-0.068,-0.0718,-0.0721,-0.0708,-0.0699,-0.0675,-0.058,-0.0537,-0.0423,-0.0375,-0.0235,-0.0161,-0.0038,0.0118,0.0108,0.0296,0.0308,0.0405,0.0407,0.0485,0.0493,0.0685,0.0402,0.0402,0.0401,0.0401,0,-0.0706,-0.0733,-0.075,-0.0774,-0.0797,-0.0759,-0.0744,-0.0689,-0.06,-0.0544,-0.0416,-0.0338,-0.0152,-0.0015,0.0109,0.0297,0.0295,0.0405,0.0442,0.0467,0.0472,0.0632,0.0673,0.0405,0.0404,0.0403,0.0403,0,-0.0759,-0.0773,-0.0818,-0.0827,-0.083,-0.0845,-0.0813,-0.079,-0.0698,-0.0621,-0.0591,-0.0409,-0.0218,-0.003,0.0183,0.029,0.0548,0.0511,0.0515,0.0551,0.0768,0.0802,0.0998,0.1069,0.0633,0.0635,0.0636,0,-0.0793,-0.0828,-0.0869,-0.0899,-0.091,-0.0922,-0.0924,-0.0851,-0.0815,-0.0653,-0.0619,-0.0424,-0.026,0.0073,0.0305,0.0539,0.0628,0.0684,0.068,0.0798,0.0864,0.0881,0.0926,0.0756,0.0759,0.0761,0.0762,0,-0.0852,-0.0867,-0.0905,-0.0974,-0.1001,-0.1018,-0.1011,-0.1,-0.0891,-0.0798,-0.0643,-0.05,-0.0157,0.0156,0.0458,0.0598,0.0794,0.0727,0.0871,0.0995,0.1008,0.1087,0.0657,0.0778,0.0777,0.0775,0.0775,0.0774,-0.0884,-0.0929,-0.0983,-0.1042,-0.1077,-0.11,-0.1104,-0.1063,-0.0995,-0.0831,-0.0685,-0.0428,0.0021,0.0479,0.064,0.0994,0.0938,0.1091,0.1126,0.1134,0.1206,0.0794,0.0945,0.0944,0.0944,0.0943,0.0943,0,-0.0925,-0.0977,-0.1044,-0.1111,-0.1158,-0.1154,-0.1145,-0.1109,-0.1027,-0.0839,-0.0655,-0.0131,0.0307,0.0706,0.1206,0.1386,0.1413,0.1474,0.1525,0.1554,0.1227,0.1238,0.1434,0.1434,0.1434,0.1434,0.1434,0.1433,-0.0948,-0.1025,-0.1065,-0.116,-0.1203,-0.1227,-0.1216,-0.113,-0.0992,-0.0669,-0.0359,-0.0104,0.0479,0.1282,0.1735,0.1769,0.1906,0.1893,0.1955,0.1748,0.1715,0.1684,0.1709,0.2,0.2001,0.2283,0.2286,0.2288]}],[{"header":{"parameterUnit":"m.s-1","parameterCategory":2,"la1":30.2991,"la2":30.254,"lo1":-89.0895,"lo2":-89.0444,"dy":0.0017,"dx":0.0017,"nx":28,"ny":28,"refTime":"2026-02-14T09:00:00:Z","depth":"2","parameterNumber":2,"parameterNumberName":"U-component_of_CURRENTS"},"data":[0,0,0,0,0,0,0,0,0,0,0,0,0,0,0,0,0,0,0,0,0,0,0,0,0,0,0,0,0,0,0,0,0,0,0,0,0,0,0,0,0,0,0,0,0,0,0,0,0,0,0,0,0,0,0,0,0,0,-0.2357,-0.2358,0,-0.2425,-0.2425,-0.2426,-0.2419,-0.2418,-0.2417,-0.2417,-0.2439,-0.244,-0.2441,0,0,0,0,0,0,0,0,0,0,0,0,0,-0.2254,-0.2255,-0.2357,-0.2358,-0.2359,-0.2424,-0.2425,-0.2426,-0.2419,-0.2418,-0.2417,-0.2416,-0.2438,-0.244,-0.2441,0,0,0,0,0,0,0,0,0,0,0,0,0,-0.2305,-0.2256,-0.2357,-0.2366,-0.2367,-0.2424,-0.2425,-0.2426,-0.2419,-0.2418,-0.2417,-0.2416,-0.2438,-0.244,-0.2441,-0.2478,0,0,-0.2448,-0.2449,0,0,0,0,0,0,0,0,-0.2302,-0.2309,-0.2363,-0.2365,-0.2367,-0.2414,-0.2397,-0.2442,-0.242,-0.2397,-0.2417,-0.2415,-0.2429,-0.2432,-0.2444,-0.2479,-0.248,-0.2448,-0.2449,-0.245,-0.2451,0,0,0,0,0,0,0,-0.2299,-0.2306,-0.2381,-0.2364,-0.2367,-0.2377,-0.2383,-0.2406,-0.2416,-0.2399,-0.2399,-0.2411,-0.2429,-0.2442,-0.2444,-0.2481,-0.2448,-0.245,-0.2451,-0.2452,-0.2531,-0.2532,0,0,0,0,0,0,-0.2296,-0.2303,-0.2379,-0.2383,-0.2334,-0.238,-0.2386,-0.2398,-0.2417,-0.242,-0.2412,-0.2411,-0.2439,-0.2442,-0.2445,-0.2486,-0.245,-0.2452,-0.2453,-0.253,-0.2531,-0.2532,0,0,0,0,0,0,-0.2293,-0.2302,-0.2376,-0.2346,-0.2357,-0.2383,-0.2397,-0.24,-0.2415,-0.2428,-0.2429,-0.2423,-0.2438,-0.2442,-0.2467,-0.2487,-0.2453,-0.2455,-0.2529,-0.253,-0.2532,-0.2571,0,0,0,0,0,0,-0.229,-0.2301,-0.2306,-0.2346,-0.2359,-0.2411,-0.2399,-0.2403,-0.2425,-0.2424,-0.2438,-0.2439,-0.2438,-0.2464,-0.2469,-0.2489,-0.2456,-0.2528,-0.253,-0.2531,-0.2569,-0.2574,-0.2578,0,0,0,0,0,-0.2286,-0.2299,-0.2306,-0.2315,-0.2366,-0.2412,-0.2419,-0.2432,-0.2427,-0.2439,-0.2447,-0.2438,-0.2478,-0.2467,-0.2472,-0.2494,-0.2527,-0.2529,-0.2531,-0.2567,-0.2573,-0.2578,0,0,0,0,0,0,-0.2255,-0.2302,-0.2309,-0.2334,-0.2371,-0.2412,-0.2424,-0.2439,-0.2457,-0.2452,-0.2457,-0.2459,-0.2484,-0.2487,-0.2475,-0.252,-0.2499,-0.2502,-0.2524,-0.253,-0.2535,-0.2509,-0.2458,0,0,0,0,0,-0.2254,-0.2272,-0.2321,-0.2339,-0.2359,-0.2394,-0.2413,-0.2428,-0.2453,-0.246,-0.2474,-0.2485,-0.2499,-0.2512,-0.2522,-0.2558,-0.252,-0.2573,-0.2577,-0.2581,-0.2564,-0.2522,-0.252,-0.2539,-0.2539,-0.2539,0,0,-0.2246,-0.2274,-0.2284,-0.2334,-0.2359,-0.2396,-0.2401,-0.2436,-0.2459,-0.246,-0.249,-0.2501,-0.251,-0.254,-0.2553,-0.2546,-0.256,-0.2584,-0.2587,-0.2567,-0.2524,-0.2522,-0.252,-0.254,-0.254,-0.254,0,0,-0.2246,-0.2267,-0.2287,-0.2321,-0.2369,-0.2396,-0.2409,-0.2459,-0.2471,-0.2511,-0.2509,-0.2528,-0.2567,-0.2571,-0.2578,-0.2616,-0.258,-0.263,-0.2642,-0.2603,-0.26,-0.2597,-0.2556,-0.255,-0.2639,-0.2639,-0.2639,0,-0.2236,-0.2267,-0.2299,-0.2333,-0.2359,-0.2397,-0.2429,-0.2456,-0.2506,-0.2514,-0.252,-0.2557,-0.2574,-0.2592,-0.2612,-0.2625,-0.2594,-0.2622,-0.2606,-0.2603,-0.2599,-0.2558,-0.2549,-0.2642,-0.2641,-0.2641,-0.2641,0,-0.2256,-0.2284,-0.2299,-0.235,-0.2383,-0.2417,-0.2464,-0.2492,-0.2514,-0.2537,-0.2561,-0.2583,-0.2598,-0.262,-0.2634,-0.2631,-0.2614,-0.2611,-0.2587,-0.2599,-0.2556,-0.2546,-0.2645,-0.2644,-0.2643,-0.2643,0,0,-0.2223,-0.2298,-0.2302,-0.2324,-0.2394,-0.2421,-0.2462,-0.2504,-0.2515,-0.2558,-0.2564,-0.2609,-0.2614,-0.2621,-0.2639,-0.2623,-0.2591,-0.2616,-0.2612,-0.2566,-0.2498,-0.2475,-0.2462,-0.2584,-0.2583,-0.2582,-0.2481,0,-0.2227,-0.2278,-0.2319,-0.2364,-0.2394,-0.2441,-0.2472,-0.2512,-0.2539,-0.2557,-0.2573,-0.2588,-0.2616,-0.2627,-0.2616,-0.2599,-0.2567,-0.2618,-0.25,-0.2496,-0.2466,-0.2451,-0.2291,-0.2186,-0.2471,-0.247,-0.2469,0,-0.2228,-0.2263,-0.2306,-0.2363,-0.2379,-0.2411,-0.2451,-0.2487,-0.2521,-0.2539,-0.2556,-0.2568,-0.2574,-0.2582,-0.2535,-0.2567,-0.2529,-0.2506,-0.2501,-0.2452,-0.2455,-0.2219,-0.2158,-0.2453,-0.2454,-0.2455,-0.2456,0,-0.2177,-0.2248,-0.2275,-0.2299,-0.2375,-0.2392,-0.2428,-0.2474,-0.2494,-0.252,-0.2526,-0.2533,-0.253,-0.2491,-0.248,-0.2497,-0.2403,-0.2415,-0.2345,-0.2344,-0.2167,-0.2153,-0.2337,-0.2337,-0.2338,-0.2338,-0.2338,0,-0.216,-0.2179,-0.225,-0.2268,-0.2289,-0.2356,-0.2376,-0.2413,-0.2453,-0.2467,-0.2507,-0.2506,-0.2504,-0.2472,-0.2449,-0.2374,-0.2373,-0.2326,-0.2309,-0.2181,-0.217,-0.237,-0.2375,-0.2334,-0.2335,-0.2336,-0.2336,0,-0.2098,-0.2151,-0.218,-0.225,-0.2267,-0.228,-0.2345,-0.2359,-0.2408,-0.2423,-0.243,-0.2465,-0.2431,-0.2416,-0.2349,-0.2324,-0.2261,-0.2225,-0.2084,-0.2053,-0.2231,-0.224,-0.2124,-0.2122,-0.212,-0.2119,-0.2118,0,-0.2069,-0.2078,-0.2143,-0.2155,-0.2185,-0.222,-0.2243,-0.2318,-0.234,-0.2396,-0.2392,-0.2382,-0.2361,-0.2271,-0.2214,-0.2134,-0.2193,-0.1941,-0.1947,-0.2211,-0.2206,-0.2217,-0.2227,-0.1726,-0.1721,-0.1718,-0.1715,0,-0.2,-0.2022,-0.2046,-0.2072,-0.2097,-0.2125,-0.2168,-0.2179,-0.2264,-0.2279,-0.2291,-0.2278,-0.2223,-0.2081,-0.1998,-0.1935,-0.1952,-0.1871,-0.2136,-0.1832,-0.1834,-0.1831,-0.1854,-0.1685,-0.1688,-0.169,-0.1692,-0.1693,-0.1929,-0.1924,-0.1953,-0.1963,-0.1993,-0.2002,-0.1984,-0.2042,-0.2051,-0.2041,-0.2127,-0.2046,-0.202,-0.1817,-0.1725,-0.1648,-0.178,-0.1688,-0.1698,-0.1711,-0.1711,-0.1713,-0.1539,-0.1541,-0.1543,-0.1545,-0.1546,0,-0.1825,-0.1832,-0.1841,-0.1849,-0.1827,-0.1886,-0.1905,-0.1853,-0.182,-0.1849,-0.1836,-0.1634,-0.1552,-0.1525,-0.1374,-0.1354,-0.133,-0.1286,-0.125,-0.1281,-0.1309,-0.1288,-0.1003,-0.1002,-0.1,-0.0999,0,0,-0.1772,-0.1735,-0.1737,-0.1665,-0.1672,-0.1594,-0.1573,-0.1519,-0.1498,-0.1398,-0.1358,-0.1469,-0.1492,-0.125,-0.1194,-0.1077,-0.1163,-0.1021,-0.1456,-0.1445,-0.1471,-0.154,-0.1544,0,0,0,0,0]},{"header":{"parameterUnit":"m.s-1","parameterCategory":2,"la1":30.2991,"la2":30.254,"lo1":-89.0895,"lo2":-89.0444,"dy":0.0017,"dx":0.0017,"nx":28,"ny":28,"refTime":"2026-02-14T09:00:00:Z","depth":"2","parameterNumber":3,"parameterNumberName":"V-component_of_CURRENTS"},"data":[0,0,0,0,0,0,0,0,0,0,0,0,0,0,0,0,0,0,0,0,0,0,0,0,0,0,0,0,0,0,0,0,0,0,0,0,0,0,0,0,0,0,0,0,0,0,0,0,0,0,0,0,0,0,0,0,0,0,-0.0317,-0.0316,0,-0.0249,-0.0248,-0.0247,-0.0194,-0.0193,-0.0193,-0.0192,-0.007,-0.0067,-0.0065,0,0,0,0,0,0,0,0,0,0,0,0,0,-0.0348,-0.0348,-0.0317,-0.0316,-0.0316,-0.0249,-0.0248,-0.0247,-0.0194,-0.0193,-0.0193,-0.0192,-0.0071,-0.0068,-0.0064,0,0,0,0,0,0,0,0,0,0,0,0,0,-0.0312,-0.0348,-0.0317,-0.0282,-0.0278,-0.0249,-0.0248,-0.0246,-0.0194,-0.0193,-0.0193,-0.0192,-0.0072,-0.0068,-0.0064,-0.005,0,0,-0.0051,-0.0049,0,0,0,0,0,0,0,0,-0.0314,-0.0311,-0.0288,-0.0284,-0.028,-0.023,-0.0214,-0.0178,-0.0194,-0.0225,-0.0192,-0.0192,-0.012,-0.0112,-0.0099,-0.0044,-0.0039,-0.005,-0.0048,-0.0046,-0.0045,0,0,0,0,0,0,0,-0.0316,-0.0313,-0.0289,-0.0287,-0.0282,-0.0251,-0.0245,-0.0207,-0.0175,-0.0222,-0.0218,-0.0212,-0.0117,-0.0104,-0.0096,-0.0037,-0.0051,-0.0047,-0.0044,-0.0042,0.0061,0.0061,0,0,0,0,0,0,-0.033,-0.0316,-0.0291,-0.0287,-0.0297,-0.0251,-0.0245,-0.0246,-0.0176,-0.0166,-0.0213,-0.021,-0.0111,-0.0101,-0.0092,-0.0051,-0.0046,-0.0042,-0.004,0.0061,0.0061,0.0061,0,0,0,0,0,0,-0.0332,-0.0329,-0.0294,-0.03,-0.0293,-0.0252,-0.0253,-0.0245,-0.0231,-0.017,-0.0158,-0.0208,-0.0111,-0.0098,-0.0057,-0.0046,-0.004,-0.0036,0.0061,0.0061,0.0061,0.0018,0,0,0,0,0,0,-0.0333,-0.033,-0.0335,-0.0301,-0.0294,-0.0287,-0.0253,-0.0244,-0.0229,-0.0225,-0.0162,-0.015,-0.0109,-0.0064,-0.0053,-0.004,-0.0033,0.006,0.0061,0.0061,0.0019,0.0017,0.0015,0,0,0,0,0,-0.0334,-0.0351,-0.0336,-0.0333,-0.0302,-0.0288,-0.0281,-0.0248,-0.023,-0.0231,-0.0183,-0.0152,-0.0053,-0.006,-0.0047,-0.0033,0.006,0.0061,0.0061,0.002,0.0017,0.0015,0,0,0,0,0,0,-0.0368,-0.0346,-0.0329,-0.0338,-0.0317,-0.0279,-0.0278,-0.0254,-0.0218,-0.0212,-0.0151,-0.0136,-0.0098,-0.0063,-0.0072,-0.0003,0.0009,0.0012,-0.0026,-0.0028,-0.0031,-0.0047,-0.0029,0,0,0,0,0,-0.0378,-0.0383,-0.0354,-0.036,-0.0354,-0.0316,-0.0305,-0.0284,-0.0249,-0.0233,-0.0185,-0.0133,-0.0086,-0.0057,-0.0017,0.002,0.0054,0.0038,0.0036,0.0034,0.0029,0.0091,0.0094,0.0063,0.0063,0.0063,0,0,-0.0391,-0.038,-0.0381,-0.0367,-0.0347,-0.0347,-0.0308,-0.0301,-0.0287,-0.0225,-0.0191,-0.0145,-0.0081,-0.0039,-0.0018,-0.0006,0.0059,0.0034,0.0032,0.0028,0.0092,0.0095,0.0098,0.0063,0.0063,0.0063,0,0,-0.0428,-0.0412,-0.0431,-0.042,-0.0401,-0.0374,-0.0376,-0.034,-0.0311,-0.0277,-0.0224,-0.0172,-0.0107,-0.0051,-0.0016,-0.0007,0.0038,0.0005,-0.0009,0.0051,0.0054,0.0057,0.0093,0.01,0.0012,0.0012,0.0012,0,-0.0444,-0.0462,-0.0433,-0.0449,-0.0442,-0.0391,-0.0406,-0.037,-0.0321,-0.029,-0.0275,-0.0161,-0.011,-0.0038,-0.0035,-0.001,0.0019,-0.0005,0.0048,0.0052,0.0056,0.0092,0.01,0.001,0.001,0.001,0.001,0,-0.0494,-0.0506,-0.0518,-0.0515,-0.0503,-0.0509,-0.046,-0.0432,-0.0388,-0.0341,-0.0269,-0.0194,-0.0124,-0.0095,-0.0061,-0.0002,0.0007,0.003,0.0052,0.0056,0.0094,0.0104,0.0007,0.0008,0.0008,0.0009,0,0,-0.0534,-0.0551,-0.0554,-0.0563,-0.0539,-0.0534,-0.0505,-0.0458,-0.0425,-0.0359,-0.0309,-0.0218,-0.017,-0.0127,-0.0067,-0.0009,0.0043,0.0015,0.002,0.0046,0.0158,0.0192,0.0205,0.0075,0.0077,0.0078,0.0169,0,-0.0579,-0.0631,-0.0615,-0.0641,-0.066,-0.0603,-0.0578,-0.0523,-0.0455,-0.0392,-0.029,-0.0227,-0.0181,-0.0146,-0.008,0.0019,0.0066,0.0015,0.0155,0.0158,0.0185,0.0217,0.0172,0.0253,0.0179,0.018,0.0181,0,-0.0631,-0.0658,-0.0705,-0.0703,-0.0703,-0.0702,-0.0642,-0.0612,-0.0504,-0.0448,-0.0359,-0.0282,-0.0176,-0.0149,0.0019,-0.0017,0.0054,0.0126,0.0132,0.0185,0.021,0.024,0.0273,0.0197,0.0196,0.0195,0.0194,0,-0.0679,-0.0712,-0.0751,-0.0755,-0.0746,-0.074,-0.0719,-0.0632,-0.0592,-0.0484,-0.0438,-0.0305,-0.0233,-0.0114,0.0038,0.0027,0.0214,0.0223,0.0316,0.0318,0.032,0.032,0.0317,0.0317,0.0317,0.0316,0.0316,0,-0.0735,-0.0762,-0.078,-0.0804,-0.0829,-0.0796,-0.0784,-0.0733,-0.065,-0.0598,-0.0476,-0.0402,-0.0222,-0.0088,0.0032,0.0215,0.0215,0.0319,0.0354,0.0302,0.03,0.0283,0.0277,0.032,0.0319,0.0318,0.0318,0,-0.0784,-0.0799,-0.0845,-0.0857,-0.086,-0.0876,-0.0849,-0.0829,-0.0742,-0.0669,-0.064,-0.0466,-0.028,-0.0098,0.011,0.0212,0.0377,0.0428,0.0346,0.037,0.0433,0.0425,0.0544,0.0546,0.0548,0.0549,0.0551,0,-0.0817,-0.0851,-0.0893,-0.0924,-0.0936,-0.095,-0.0954,-0.0886,-0.0854,-0.0699,-0.0667,-0.0477,-0.0321,0.0003,0.0215,0.044,0.0433,0.0508,0.0488,0.044,0.0461,0.045,0.0439,0.0463,0.0464,0.0464,0.0465,0,-0.0873,-0.0889,-0.0927,-0.0996,-0.1024,-0.1042,-0.1038,-0.1028,-0.0926,-0.0838,-0.0691,-0.0555,-0.0234,0.0021,0.031,0.0432,0.0476,0.0524,0.0519,0.0415,0.0373,0.0391,0.0381,0.0468,0.0468,0.0467,0.0467,0.0467,-0.0905,-0.0948,-0.1002,-0.1061,-0.1097,-0.1122,-0.1127,-0.109,-0.1027,-0.0875,-0.0739,-0.0511,-0.026,0.0158,0.0363,0.0544,0.0548,0.0573,0.0568,0.0564,0.054,0.0504,0.0618,0.0619,0.0619,0.062,0.062,0,-0.0944,-0.0995,-0.1062,-0.1129,-0.1176,-0.1173,-0.1167,-0.1135,-0.1058,-0.0895,-0.0727,-0.0441,-0.0144,0.0119,0.041,0.0589,0.0562,0.0606,0.0527,0.0523,0.052,0.0491,0.0558,0.0558,0.0558,0.0559,0,0,-0.0968,-0.1043,-0.1081,-0.1176,-0.1219,-0.1245,-0.1236,-0.1157,-0.1037,-0.0867,-0.0697,-0.0463,-0.0139,0.0048,0.0276,0.0425,0.0424,0.0434,0.0465,0.0341,0.0336,0.0484,0.0433,0,0,0,0,0]}],[{"header":{"parameterUnit":"m.s-1","parameterCategory":2,"la1":30.2991,"la2":30.254,"lo1":-89.0895,"lo2":-89.0444,"dy":0.0017,"dx":0.0017,"nx":28,"ny":28,"refTime":"2026-02-14T09:00:00:Z","depth":"4","parameterNumber":2,"parameterNumberName":"U-component_of_CURRENTS"},"data":[0,0,0,0,0,0,0,0,0,0,0,0,0,0,0,0,0,0,0,0,0,0,0,0,0,0,0,0,0,0,0,0,0,0,0,0,0,0,0,0,0,0,0,0,0,0,0,0,0,0,0,0,0,0,0,0,0,0,-0.1515,-0.1515,0,-0.1542,-0.1542,-0.1542,-0.1558,-0.1558,-0.1559,-0.1559,-0.1541,-0.154,-0.1539,0,0,0,0,0,0,0,0,0,0,0,0,0,-0.1433,-0.1435,-0.1515,-0.1516,-0.1516,-0.1542,-0.1542,-0.1542,-0.1558,-0.1558,-0.1559,-0.156,-0.1542,-0.154,-0.1539,0,0,0,0,0,0,0,0,0,0,0,0,0,-0.1461,-0.1435,-0.1515,-0.1531,-0.1533,-0.1542,-0.1542,-0.1542,-0.1558,-0.1558,-0.1559,-0.156,-0.1542,-0.1541,-0.1539,-0.1514,0,0,-0.1535,-0.1534,0,0,0,0,0,0,0,0,-0.1459,-0.1463,-0.1528,-0.153,-0.1532,-0.1552,-0.1507,-0.1532,-0.1557,-0.1543,-0.1559,-0.156,-0.1543,-0.1542,-0.1539,-0.1514,-0.1513,-0.1535,-0.1534,-0.1533,-0.1533,0,0,0,0,0,0,0,-0.1457,-0.1462,-0.152,-0.1529,-0.1532,-0.1523,-0.1527,-0.1512,-0.1533,-0.1544,-0.1547,-0.1558,-0.1544,-0.154,-0.1538,-0.1513,-0.1535,-0.1533,-0.1532,-0.1532,-0.154,-0.1541,0,0,0,0,0,0,-0.1466,-0.146,-0.152,-0.1522,-0.1503,-0.1524,-0.1529,-0.1541,-0.1535,-0.1537,-0.1557,-0.1558,-0.1542,-0.154,-0.1538,-0.1575,-0.1533,-0.1532,-0.1531,-0.1539,-0.154,-0.1541,0,0,0,0,0,0,-0.1464,-0.1471,-0.1519,-0.1495,-0.1502,-0.1526,-0.1538,-0.1541,-0.1571,-0.1546,-0.1546,-0.1588,-0.1543,-0.154,-0.154,-0.1572,-0.1531,-0.153,-0.1537,-0.1539,-0.1541,-0.1605,0,0,0,0,0,0,-0.1461,-0.147,-0.1489,-0.1496,-0.1504,-0.1544,-0.1538,-0.1541,-0.1577,-0.1579,-0.1572,-0.1569,-0.1543,-0.1543,-0.1539,-0.1569,-0.1529,-0.1536,-0.1538,-0.154,-0.1602,-0.1609,-0.1615,0,0,0,0,0,-0.1458,-0.1477,-0.149,-0.1498,-0.1527,-0.1546,-0.1549,-0.1564,-0.1578,-0.1593,-0.1583,-0.1571,-0.1554,-0.1542,-0.1537,-0.1568,-0.1535,-0.1538,-0.154,-0.1599,-0.1608,-0.1615,0,0,0,0,0,0,-0.145,-0.1481,-0.1495,-0.1524,-0.1546,-0.1551,-0.157,-0.1585,-0.159,-0.1599,-0.1574,-0.157,-0.1583,-0.1566,-0.1554,-0.1577,-0.1547,-0.1548,-0.1593,-0.1601,-0.1608,-0.1612,-0.1527,0,0,0,0,0,-0.1459,-0.1484,-0.1509,-0.1534,-0.1549,-0.1568,-0.1583,-0.1597,-0.1601,-0.1607,-0.1605,-0.1598,-0.1584,-0.1587,-0.157,-0.158,-0.1557,-0.16,-0.1607,-0.1613,-0.1614,-0.1591,-0.1595,-0.1549,-0.1549,-0.1549,0,0,-0.1465,-0.1485,-0.1502,-0.1536,-0.1553,-0.1575,-0.1578,-0.1612,-0.1633,-0.1602,-0.1632,-0.1618,-0.159,-0.1597,-0.1603,-0.1592,-0.1619,-0.1616,-0.1621,-0.1619,-0.1594,-0.1598,-0.1602,-0.1551,-0.155,-0.155,0,0,-0.1476,-0.1508,-0.153,-0.1551,-0.1591,-0.1601,-0.1622,-0.1649,-0.1668,-0.1688,-0.167,-0.1674,-0.1669,-0.165,-0.1638,-0.1673,-0.1649,-0.1685,-0.1726,-0.1705,-0.1708,-0.1711,-0.1705,-0.1706,-0.1694,-0.1694,-0.1694,0,-0.1484,-0.1511,-0.1539,-0.1562,-0.1584,-0.1618,-0.1643,-0.1663,-0.169,-0.1702,-0.1709,-0.1703,-0.1688,-0.168,-0.1699,-0.1687,-0.1678,-0.1698,-0.1713,-0.1714,-0.1716,-0.1709,-0.171,-0.1697,-0.1697,-0.1697,-0.1696,0,-0.1499,-0.1534,-0.1549,-0.159,-0.1617,-0.1646,-0.1679,-0.1713,-0.1745,-0.1759,-0.178,-0.1759,-0.1755,-0.176,-0.1741,-0.1753,-0.1745,-0.1718,-0.1691,-0.1724,-0.1716,-0.1715,-0.1702,-0.1701,-0.17,-0.1699,0,0,-0.1483,-0.1548,-0.1556,-0.1579,-0.1635,-0.1653,-0.17,-0.1737,-0.1764,-0.1799,-0.1822,-0.1818,-0.1826,-0.1813,-0.1798,-0.1791,-0.1804,-0.1775,-0.1772,-0.1768,-0.1775,-0.1672,-0.1662,-0.1783,-0.1783,-0.1783,-0.1771,0,-0.1487,-0.1531,-0.1566,-0.1611,-0.1634,-0.1682,-0.1716,-0.1758,-0.1792,-0.1825,-0.183,-0.1841,-0.1841,-0.1845,-0.1842,-0.1807,-0.1804,-0.1811,-0.1744,-0.1742,-0.1645,-0.1657,-0.1782,-0.177,-0.177,-0.177,-0.177,0,-0.1481,-0.1513,-0.1559,-0.1617,-0.1633,-0.167,-0.1727,-0.1763,-0.1815,-0.1842,-0.1869,-0.1875,-0.1887,-0.1873,-0.1847,-0.1856,-0.1829,-0.1801,-0.1798,-0.1676,-0.1637,-0.1725,-0.1768,-0.1768,-0.1768,-0.1768,-0.1769,0,-0.1435,-0.1503,-0.154,-0.1562,-0.1635,-0.167,-0.1713,-0.1771,-0.1799,-0.1857,-0.1877,-0.1896,-0.19,-0.1879,-0.1849,-0.1852,-0.1806,-0.1792,-0.1674,-0.1667,-0.1736,-0.1732,-0.1762,-0.1762,-0.1763,-0.1763,-0.1763,0,-0.1405,-0.1436,-0.1527,-0.1546,-0.1588,-0.1653,-0.1699,-0.1745,-0.1806,-0.1828,-0.1886,-0.1888,-0.19,-0.1883,-0.1857,-0.1764,-0.1812,-0.1678,-0.1649,-0.1767,-0.1767,-0.1736,-0.1733,-0.1762,-0.1762,-0.1762,-0.1762,0,-0.1338,-0.1404,-0.1446,-0.1537,-0.1568,-0.1599,-0.1688,-0.1712,-0.1785,-0.1815,-0.1836,-0.1883,-0.1859,-0.1853,-0.1807,-0.1748,-0.1682,-0.1635,-0.1779,-0.1759,-0.1563,-0.1564,-0.1503,-0.15,-0.1496,-0.1493,-0.1491,0,-0.1302,-0.1322,-0.1424,-0.1453,-0.1499,-0.1561,-0.1598,-0.1689,-0.1711,-0.1791,-0.1787,-0.1804,-0.1819,-0.1674,-0.1689,-0.1624,-0.1596,-0.1564,-0.1551,-0.1554,-0.1533,-0.1539,-0.1544,-0.1486,-0.1485,-0.1484,-0.1483,0,-0.1225,-0.1279,-0.1316,-0.1374,-0.1426,-0.1467,-0.1529,-0.1531,-0.1625,-0.1713,-0.1684,-0.1663,-0.1629,-0.1593,-0.1548,-0.1504,-0.1587,-0.1529,-0.1536,-0.1523,-0.1532,-0.1516,-0.1525,-0.1472,-0.1474,-0.1475,-0.1475,0,-0.1166,-0.1173,-0.1232,-0.1266,-0.1329,-0.1339,-0.1391,-0.1413,-0.1446,-0.1545,-0.1534,-0.1559,-0.1614,-0.153,-0.1494,-0.1438,-0.1412,-0.1362,-0.1377,-0.139,-0.1355,-0.135,-0.1202,0,0,0,0,0,-0.1094,-0.1086,-0.1115,-0.1144,-0.1203,-0.1234,-0.1322,-0.1379,-0.1476,-0.1418,-0.1471,-0.144,-0.1388,-0.1404,-0.1317,-0.1431,-0.1412,-0.1325,-0.1362,-0.1408,-0.1422,-0.1389,0,0,0,0,0,0,-0.1045,-0.1067,-0.107,-0.1029,-0.1026,-0.1072,-0.1121,-0.1198,-0.1174,-0.1283,-0.1256,-0.1347,-0.1309,-0.1402,-0.1282,-0.1286,-0.1279,-0.1355,-0.1351,-0.1401,-0.1413,-0.1423,-0.1395,0,0,0,0,0]},{"header":{"parameterUnit":"m.s-1","parameterCategory":2,"la1":30.2991,"la2":30.254,"lo1":-89.0895,"lo2":-89.0444,"dy":0.0017,"dx":0.0017,"nx":28,"ny":28,"refTime":"2026-02-14T09:00:00:Z","depth":"4","parameterNumber":3,"parameterNumberName":"V-component_of_CURRENTS"},"data":[0,0,0,0,0,0,0,0,0,0,0,0,0,0,0,0,0,0,0,0,0,0,0,0,0,0,0,0,0,0,0,0,0,0,0,0,0,0,0,0,0,0,0,0,0,0,0,0,0,0,0,0,0,0,0,0,0,0,-0.0299,-0.0298,0,-0.0275,-0.0275,-0.0275,-0.0256,-0.0255,-0.0255,-0.0255,-0.0223,-0.0223,-0.0222,0,0,0,0,0,0,0,0,0,0,0,0,0,-0.0304,-0.0304,-0.0299,-0.0298,-0.0298,-0.0275,-0.0275,-0.0275,-0.0256,-0.0255,-0.0255,-0.0255,-0.0223,-0.0223,-0.0222,0,0,0,0,0,0,0,0,0,0,0,0,0,-0.0294,-0.0304,-0.0299,-0.0286,-0.0284,-0.0275,-0.0275,-0.0275,-0.0256,-0.0255,-0.0255,-0.0255,-0.0224,-0.0223,-0.0222,-0.0223,0,0,-0.0219,-0.0218,0,0,0,0,0,0,0,0,-0.0294,-0.0293,-0.0288,-0.0286,-0.0285,-0.0268,-0.0265,-0.0257,-0.0256,-0.0267,-0.0255,-0.0255,-0.0237,-0.0235,-0.0232,-0.0221,-0.022,-0.0219,-0.0218,-0.0218,-0.0217,0,0,0,0,0,0,0,-0.0295,-0.0294,-0.029,-0.0287,-0.0286,-0.0273,-0.0272,-0.0263,-0.0254,-0.0266,-0.0264,-0.0261,-0.0237,-0.0233,-0.0231,-0.0219,-0.0219,-0.0218,-0.0217,-0.0217,-0.0191,-0.0191,0,0,0,0,0,0,-0.0299,-0.0295,-0.029,-0.0289,-0.0289,-0.0273,-0.0272,-0.0274,-0.0255,-0.0251,-0.0262,-0.0261,-0.0235,-0.0232,-0.023,-0.0224,-0.0218,-0.0217,-0.0216,-0.0191,-0.0191,-0.0191,0,0,0,0,0,0,-0.0299,-0.0299,-0.0291,-0.0291,-0.0289,-0.0274,-0.0276,-0.0274,-0.0273,-0.0252,-0.0248,-0.0264,-0.0235,-0.0231,-0.0227,-0.0222,-0.0216,-0.0216,-0.0191,-0.0191,-0.0191,-0.0215,0,0,0,0,0,0,-0.03,-0.0299,-0.0306,-0.0291,-0.0289,-0.0294,-0.0277,-0.0273,-0.0271,-0.027,-0.0253,-0.0249,-0.0234,-0.0229,-0.0226,-0.0221,-0.0215,-0.0192,-0.0191,-0.0191,-0.0214,-0.0215,-0.0216,0,0,0,0,0,-0.03,-0.0314,-0.0306,-0.0306,-0.0297,-0.0294,-0.0293,-0.028,-0.0272,-0.0277,-0.0263,-0.025,-0.0225,-0.0229,-0.0225,-0.022,-0.0192,-0.0191,-0.0191,-0.0213,-0.0215,-0.0216,0,0,0,0,0,0,-0.0321,-0.0312,-0.0304,-0.0315,-0.0307,-0.0291,-0.0297,-0.0285,-0.0278,-0.0279,-0.0255,-0.0251,-0.0243,-0.0231,-0.0235,-0.021,-0.0203,-0.0203,-0.0221,-0.0223,-0.0224,-0.0223,-0.0214,0,0,0,0,0,-0.0328,-0.0335,-0.0322,-0.033,-0.0329,-0.0313,-0.0311,-0.0303,-0.0293,-0.029,-0.0274,-0.0256,-0.0239,-0.0232,-0.0219,-0.0212,-0.0182,-0.0203,-0.0205,-0.0206,-0.0203,-0.0155,-0.0152,-0.019,-0.019,-0.019,0,0,-0.0338,-0.0335,-0.0338,-0.0335,-0.0329,-0.0335,-0.0312,-0.0315,-0.0312,-0.0288,-0.0284,-0.0264,-0.024,-0.0228,-0.0223,-0.0218,-0.0178,-0.0205,-0.0207,-0.0203,-0.0155,-0.0151,-0.0147,-0.019,-0.019,-0.019,0,0,-0.0366,-0.036,-0.0376,-0.0374,-0.0369,-0.0357,-0.0359,-0.0346,-0.0333,-0.0328,-0.0303,-0.028,-0.0265,-0.0237,-0.0222,-0.0223,-0.0189,-0.0219,-0.0223,-0.0177,-0.0174,-0.017,-0.0125,-0.0117,-0.0217,-0.0217,-0.0217,0,-0.0378,-0.0396,-0.038,-0.0395,-0.0396,-0.0369,-0.0385,-0.0368,-0.0353,-0.0337,-0.0332,-0.0282,-0.0264,-0.0231,-0.023,-0.0224,-0.0195,-0.0221,-0.0178,-0.0174,-0.017,-0.0125,-0.0116,-0.0219,-0.0218,-0.0218,-0.0218,0,-0.0415,-0.043,-0.0441,-0.0447,-0.0446,-0.0456,-0.0431,-0.0421,-0.04,-0.0374,-0.0338,-0.0304,-0.0272,-0.0258,-0.0246,-0.0206,-0.0193,-0.0188,-0.0175,-0.0168,-0.012,-0.011,-0.022,-0.022,-0.0219,-0.0219,0,0,-0.0439,-0.0463,-0.0467,-0.048,-0.0475,-0.0479,-0.0469,-0.0446,-0.043,-0.0395,-0.0367,-0.0324,-0.0293,-0.0273,-0.0243,-0.02,-0.0146,-0.0185,-0.0182,-0.0141,-0.0043,-0.0051,-0.004,-0.0135,-0.0133,-0.0132,-0.0021,0,-0.0472,-0.0517,-0.0513,-0.0545,-0.0564,-0.0536,-0.0529,-0.05,-0.0461,-0.0425,-0.036,-0.0328,-0.0301,-0.0284,-0.0234,-0.0166,-0.0122,-0.0177,-0.0055,-0.0052,-0.006,-0.003,-0.0127,-0.0013,-0.0011,-0.0009,-0.0008,0,-0.0507,-0.0533,-0.0579,-0.0595,-0.0599,-0.0611,-0.0586,-0.0574,-0.0507,-0.0472,-0.0412,-0.0361,-0.0285,-0.0272,-0.0137,-0.0174,-0.0115,-0.006,-0.0054,-0.0046,-0.0041,-0.0022,0.001,0.0009,0.0007,0.0006,0.0005,0,-0.0535,-0.0574,-0.0614,-0.0623,-0.0636,-0.0644,-0.0641,-0.0592,-0.0572,-0.0499,-0.0469,-0.037,-0.032,-0.0223,-0.0106,-0.0121,0.0042,0.0036,0.0088,0.0089,0.0072,0.0067,0.0122,0.0122,0.0122,0.0121,0.0121,0,-0.0567,-0.0599,-0.0636,-0.066,-0.0696,-0.0686,-0.0696,-0.0669,-0.062,-0.0588,-0.05,-0.0446,-0.0307,-0.0196,-0.01,0.0035,0.0052,0.0099,0.012,0.0059,0.0051,0.0079,0.0073,0.0126,0.0125,0.0124,0.0123,0,-0.059,-0.0617,-0.0667,-0.0702,-0.0716,-0.0742,-0.075,-0.0743,-0.069,-0.0643,-0.0621,-0.049,-0.0341,-0.0195,-0.0025,0.004,0.0167,0.0202,0.0137,0.0151,0.0181,0.0172,0.0277,0.0278,0.0278,0.0279,0.0279,0,-0.0605,-0.0637,-0.0704,-0.074,-0.0764,-0.0799,-0.0816,-0.0786,-0.0767,-0.0663,-0.0637,-0.0491,-0.0391,-0.0138,-0.0003,0.0195,0.0205,0.0264,0.0214,0.0188,0.0199,0.0189,0.0179,0.028,0.028,0.0281,0.0281,0,-0.0631,-0.0661,-0.0702,-0.0781,-0.0825,-0.0858,-0.0875,-0.0866,-0.0808,-0.0762,-0.0629,-0.0488,-0.032,-0.0136,0.002,0.0152,0.0227,0.027,0.0269,0.0223,0.0194,0.0201,0.0191,0.0283,0.0283,0.0282,0.0282,0,-0.0645,-0.0683,-0.0746,-0.0807,-0.0867,-0.0897,-0.0904,-0.0867,-0.0836,-0.0715,-0.0674,-0.048,-0.0365,-0.0157,-0.0012,0.0123,0.014,0.0157,0.0162,0.0161,0.0085,0.0029,0.0097,0,0,0,0,0,-0.0653,-0.0699,-0.0765,-0.0832,-0.089,-0.0919,-0.093,-0.0919,-0.0865,-0.0774,-0.0718,-0.0554,-0.0313,-0.0205,-0.0071,-0.0027,0.0143,0.013,0.016,0.0295,0.0292,0.0221,0,0,0,0,0,0,-0.0661,-0.0728,-0.0763,-0.0835,-0.0882,-0.0933,-0.0941,-0.0907,-0.0845,-0.0771,-0.0637,-0.0544,-0.031,-0.0386,-0.0073,-0.0031,-0.0001,0.0252,0.0254,0.0296,0.0294,0.0292,0.0218,0,0,0,0,0]}]]